Location: Oberwesel
(50.1000°N, 7.7333°E)
Time: 12:29:56
(UTC+02:00)

ISS - Pass Details

Date: 25 May 2025
Orbit: 415 x 418 km, 51.6° (Epoch: 19 June)

Event Time Altitude Azimuth Distance (km) Brightness Sun altitude
Rises 22:11:25 0° 285° (WNW) 2,362 1.2 -6.8°
Reaches altitude 10° 22:13:49 10° 269° (W) 1,494 -0.3 -7.1°
Maximum altitude 22:16:26 21° 217° (SW) 987 -1.9 -7.4°
Drops below altitude 10° 22:19:02 10° 166° (SSE) 1,485 -1.5 -7.7°
Enters shadow 22:19:25 - 162° (SSE) 1,610 -1.4 -7.7°
